EW5954 Weather Reports


time (UTC)temp
F
wind
direction
speed
knots
gust
knots
rain 1hr
in
rain 24hr
in
rain mn
in
humidity
%
barometer
mb
20260506002856 50 356 0.0 0.9 0.00 0.04 0.04 72
20260506002352 50 343 0.0 0.0 0.00 0.04 0.04 72
20260506001848 50 347 0.0 0.0 0.00 0.04 0.04 73
20260506001345 50 4 0.0 0.0 0.00 0.04 0.04 72
20260506000842 50 4 0.0 0.0 0.00 0.04 0.04 72
20260506000340 50 355 0.0 0.0 0.00 0.04 0.04 73
20260505235836 50 18 0.0 0.9 0.00 0.04 0.04 73
20260505235334 50 13 0.9 1.7 0.00 0.04 0.04 73
20260505234830 50 22 0.0 0.9 0.00 0.04 0.04 73
20260505234329 50 28 0.9 1.7 0.00 0.04 0.04 73
20260505233825 50 25 0.0 0.9 0.00 0.04 0.04 73
20260505233323 50 39 0.0 1.7 0.00 0.04 0.04 73
20260505232820 50 8 0.0 0.9 0.00 0.04 0.04 73
20260505232318 50 15 0.0 0.9 0.00 0.04 0.04 74
20260505231814 50 55 0.0 0.0 0.00 0.04 0.04 76
20260505231312 50 7 0.0 1.7 0.00 0.04 0.04 76
20260505230810 50 3 0.0 0.9 0.00 0.04 0.04 76
20260505230307 50 46 0.0 1.7 0.00 0.04 0.04 76
20260505225803 50 30 0.0 2.6 0.00 0.04 0.04 75
20260505225300 50 1 1.7 2.6 0.00 0.04 0.04 75
20260505224513 50 36 1.7 2.6 0.00 0.04 0.04 78
20260505224010 50 36 1.7 2.6 0.00 0.04 0.04 78
20260505223507 50 33 0.0 2.6 0.00 0.04 0.04 78
20260505223004 50 26 0.0 1.7 0.00 0.04 0.04 78
20260505222500 51 49 0.9 4.3 0.00 0.04 0.04 78
20260505221955 50 15 0.9 1.7 0.00 0.04 0.04 79
20260505221453 50 19 1.7 1.7 0.00 0.04 0.04 79
20260505220950 50 50 1.7 4.3 0.00 0.04 0.04 79
20260505220447 51 103 0.9 4.3 0.00 0.04 0.04 81
20260505215945 51 31 1.7 2.6 0.00 0.04 0.04 81
20260505215443 51 16 2.6 4.3 0.00 0.04 0.04 81
20260505214940 51 1 0.0 2.6 0.00 0.04 0.04 81
20260505214438 51 28 2.6 4.3 0.00 0.04 0.04 81
20260505213935 51 33 0.9 4.3 0.00 0.04 0.04 82
20260505213433 51 20 2.6 4.3 0.00 0.04 0.04 82
20260505212929 51 350 0.9 1.7 0.00 0.04 0.04 83
20260505212426 51 36 2.6 4.3 0.00 0.04 0.04 83
20260505211922 51 5 1.7 2.6 0.00 0.04 0.04 83
20260505211420 51 45 1.7 4.3 0.00 0.04 0.04 82
20260505210916 51 60 3.5 5.2 0.00 0.04 0.04 81
20260505210413 51 33 1.7 2.6 0.00 0.04 0.04 81
20260505205910 51 78 4.3 7.0 0.00 0.04 0.04 82
20260505205409 51 46 1.7 4.3 0.00 0.04 0.04 83
20260505204905 51 34 2.6 5.2 0.00 0.04 0.04 83
20260505204403 51 33 2.6 5.2 0.00 0.04 0.04 84
20260505203900 51 236 0.9 4.3 0.00 0.04 0.04 84
20260505203356 51 309 1.7 2.6 0.00 0.04 0.04 85
20260505202852 51 24 0.0 1.7 0.00 0.04 0.04 85
20260505202349 51 58 2.6 7.8 0.00 0.04 0.04 83
20260505201846 51 359 0.9 6.1 0.07 0.04 0.04 84
20260505201343 51 38 1.7 5.2 0.07 0.04 0.04 83
20260505200841 52 0 1.7 2.6 0.07 0.03 0.03 82
20260505200338 53 41 2.6 4.3 0.12 0.03 0.03 79
20260505195833 53 5 0.9 4.3 0.05 0.02 0.02 77
20260505195330 53 45 2.6 6.1 0.00 0.01 0.01 76
20260505194827 54 29 2.6 4.3 0.00 0.01 0.01 75
20260505194325 54 22 1.7 8.7 0.00 0.01 0.01 73
20260505193820 54 55 2.6 4.3 0.07 0.01 0.01 74
20260505193318 54 100 2.6 5.2 0.07 0.01 0.01 73
20260505192816 55 1 0.9 7.0 0.00 0.00 0.00 69
20260505192314 56 18 0.9 4.3 0.00 0.00 0.00 67
20260505191811 57 20 0.0 4.3 0.00 0.00 0.00 63
20260505191309 57 317 2.6 4.3 0.00 0.00 0.00 60
20260505190806 57 46 2.6 7.0 0.00 0.00 0.00 59
20260505190301 58 48 2.6 5.2 0.00 0.00 0.00 59
20260505185757 58 24 3.5 6.1 0.00 0.00 0.00 59
20260505185254 59 60 6.1 8.7 0.00 0.00 0.00 55
20260505184750 59 18 1.7 7.8 0.00 0.00 0.00 54
20260505184247 59 92 5.2 12.2 0.00 0.00 0.00 53
20260505183744 59 66 5.2 7.0 0.00 0.00 0.00 53
20260505183241 59 52 2.6 6.1 0.00 0.00 0.00 52
20260505182738 59 35 6.1 11.3 0.00 0.00 0.00 52
20260505182235 59 330 1.7 5.2 0.00 0.00 0.00 53
20260505181731 60 104 7.0 9.6 0.00 0.00 0.00 52
20260505181229 60 322 5.2 14.8 0.00 0.00 0.00 53
20260505180725 60 226 1.7 7.8 0.00 0.00 0.00 53
20260505180222 60 284 2.6 5.2 0.00 0.00 0.00 53
20260505175718 60 48 3.5 7.8 0.00 0.00 0.00 53
20260505175215 60 47 2.6 11.3 0.00 0.00 0.00 54
20260505174711 61 166 0.9 13.0 0.00 0.00 0.00 53
20260505174208 62 337 7.8 15.6 0.00 0.00 0.00 52
20260505173704 62 63 1.7 7.0 0.00 0.00 0.00 54
20260505173201 62 345 1.7 6.1 0.00 0.00 0.00 54
20260505172658 62 337 4.3 5.2 0.00 0.00 0.00 55
20260505172155 61 86 0.9 7.0 0.00 0.00 0.00 57
20260505171654 60 342 0.9 7.0 0.00 0.00 0.00 57
20260505171152 61 65 5.2 7.0 0.00 0.00 0.00 57
20260505170649 61 217 1.7 7.8 0.00 0.00 0.00 59
20260505170146 61 51 2.6 9.6 0.00 0.00 0.00 58
20260505165646 61 208 2.6 4.3 0.00 0.00 0.00 59
20260505165142 60 105 5.2 9.6 0.00 0.00 0.00 59
20260505164638 61 76 7.0 9.6 0.00 0.00 0.00 59
20260505164136 61 177 4.3 8.7 0.00 0.00 0.00 60
20260505163634 62 116 2.6 5.2 0.00 0.00 0.00 60
20260505163131 62 333 0.0 5.2 0.00 0.00 0.00 60
20260505162628 62 330 0.0 2.6 0.00 0.00 0.00 61
20260505162126 61 65 4.3 5.2 0.00 0.00 0.00 62
20260505161623 60 8 5.2 12.2 0.00 0.00 0.00 63
20260505161120 60 74 2.6 8.7 0.00 0.00 0.00 66
20260505160618 60 315 4.3 7.0 0.00 0.00 0.00 66
20260505160115 60 43 3.5 5.2 0.00 0.00 0.00 67
20260505153055 60 38 3.5 7.0 0.00 0.00 0.00 69
20260505152551 60 229 2.6 4.3 0.00 0.00 0.00 70
20260505152047 59 19 2.6 6.1 0.00 0.00 0.00 72
20260505151542 59 51 4.3 7.0 0.00 0.00 0.00 73
20260505151040 59 322 1.7 7.0 0.00 0.00 0.00 75
20260505150536 59 24 4.3 9.6 0.00 0.00 0.00 75
20260505140501 61 77 2.6 5.2 0.00 0.00 0.00 76
20260505124915 61 126 1.7 4.3 0.00 0.00 0.00 77
20260505124412 61 56 0.9 5.2 0.00 0.00 0.00 77
20260505123908 61 259 4.3 7.0 0.00 0.00 0.00 77
20260505123404 61 39 0.9 2.6 0.00 0.00 0.00 77
20260505122900 61 330 0.0 6.1 0.00 0.00 0.00 77
20260505122358 61 15 0.0 4.3 0.00 0.00 0.00 77
20260505121854 60 25 2.6 5.2 0.00 0.00 0.00 77
20260505121351 60 254 0.9 4.3 0.00 0.00 0.00 77
20260505120847 60 56 0.0 5.2 0.00 0.00 0.00 77
20260505120343 60 88 1.7 4.3 0.00 0.00 0.00 77
20260505115842 60 7 0.0 2.6 0.00 0.00 0.00 77
20260505115340 60 280 0.9 4.3 0.00 0.00 0.00 77
20260505114838 60 357 2.6 4.3 0.00 0.00 0.00 77
20260505114334 60 138 1.7 4.3 0.00 0.00 0.00 77
20260505113830 60 148 2.6 4.3 0.00 0.00 0.00 77
20260505113327 60 190 3.5 5.2 0.00 0.00 0.00 77
20260505112823 60 99 1.7 2.6 0.00 0.00 0.00 77
20260505112320 60 157 1.7 7.0 0.00 0.00 0.00 77
20260505111816 60 85 0.0 6.1 0.00 0.00 0.00 77
20260505111311 60 255 0.9 1.7 0.00 0.00 0.00 77
20260505110807 60 329 0.9 6.1 0.00 0.00 0.00 77
20260505110305 60 265 1.7 5.2 0.00 0.00 0.00 77
20260505101739 60 31 1.7 5.2 0.00 0.00 0.00 76
20260505101235 60 13 0.9 4.3 0.00 0.00 0.00 76
20260505100732 60 140 0.9 7.0 0.00 0.00 0.00 76
20260505100229 60 332 1.7 7.0 0.00 0.00 0.00 77
20260505095724 60 294 1.7 6.1 0.00 0.00 0.00 77
20260505095222 60 323 0.0 4.3 0.00 0.00 0.00 77
20260505094718 60 182 0.9 2.6 0.00 0.00 0.00 77
20260505094214 60 253 2.6 6.1 0.00 0.00 0.00 77
20260505093711 60 2 2.6 2.6 0.00 0.00 0.00 77
20260505093208 60 288 0.9 5.2 0.00 0.00 0.00 77
20260505092704 60 272 1.7 2.6 0.00 0.00 0.00 77
20260505092204 60 240 0.9 1.7 0.00 0.00 0.00 77
20260505091700 60 216 3.5 7.0 0.00 0.00 0.00 76
20260505091158 60 356 2.6 5.2 0.00 0.00 0.00 76
20260505090655 61 135 0.9 8.7 0.00 0.00 0.00 76
20260505090154 61 244 0.9 4.3 0.00 0.00 0.00 75
20260505085651 61 158 1.7 5.2 0.00 0.00 0.00 75
20260505085149 61 33 0.9 4.3 0.00 0.00 0.00 75
20260505084646 61 31 0.0 2.6 0.00 0.00 0.00 74
20260505084145 61 300 0.0 4.3 0.00 0.00 0.00 74
20260505083642 61 89 0.0 0.9 0.00 0.00 0.00 74
20260505083138 61 288 1.7 4.3 0.00 0.00 0.00 74
20260505082634 61 300 1.7 5.2 0.00 0.00 0.00 74
20260505082131 61 303 2.6 6.1 0.00 0.00 0.00 75
20260505081627 61 258 1.7 4.3 0.00 0.00 0.00 75
20260505081125 61 162 1.7 2.6 0.00 0.00 0.00 75
20260505080621 61 175 1.7 4.3 0.00 0.00 0.00 75
20260505080117 61 100 1.7 7.0 0.00 0.00 0.00 75
20260505075614 61 237 1.7 4.3 0.00 0.00 0.00 75
20260505075111 62 0 0.0 4.3 0.00 0.00 0.00 74
20260505074608 62 224 2.6 7.0 0.00 0.00 0.00 74
20260505074105 62 270 0.9 2.6 0.00 0.00 0.00 74
20260505073602 62 245 4.3 7.8 0.00 0.00 0.00 74
20260505073101 62 160 1.7 7.8 0.00 0.00 0.00 74
20260505072556 62 12 1.7 8.7 0.00 0.00 0.00 73
20260505072053 62 330 6.1 9.6 0.00 0.00 0.00 73
20260505071548 62 250 7.0 9.6 0.00 0.00 0.00 73
20260505071046 62 357 4.3 7.0 0.00 0.00 0.00 73
20260505070543 62 200 3.5 5.2 0.00 0.00 0.00 73
20260505070039 62 308 4.3 7.0 0.00 0.00 0.00 72
20260505065535 62 138 1.7 5.2 0.00 0.00 0.00 73
20260505065032 62 235 1.7 7.0 0.00 0.00 0.00 73
20260505064529 62 199 3.5 8.7 0.00 0.00 0.00 72
20260505064027 62 298 2.6 5.2 0.00 0.00 0.00 73
20260505063524 62 281 2.6 4.3 0.00 0.00 0.00 72
20260505063020 62 255 4.3 6.1 0.00 0.00 0.00 73
20260505062517 62 182 2.6 7.0 0.00 0.00 0.00 72
20260505062014 62 276 1.7 6.1 0.00 0.00 0.00 72
20260505061512 62 285 2.6 13.0 0.00 0.00 0.00 72
20260505061009 62 25 1.7 7.0 0.00 0.00 0.00 72
20260505060507 62 125 1.7 6.1 0.00 0.00 0.00 72
20260505060003 62 247 4.3 7.8 0.00 0.00 0.00 72
20260505055458 62 223 0.9 7.8 0.00 0.00 0.00 72
20260505054955 62 238 4.3 7.0 0.00 0.00 0.00 72
20260505054453 62 202 1.7 4.3 0.00 0.00 0.00 72
20260505053950 62 298 3.5 9.6 0.00 0.00 0.00 71
20260505053447 62 40 1.7 5.2 0.00 0.00 0.00 71
20260505052944 62 275 1.7 7.0 0.00 0.00 0.00 71
20260505052442 62 229 1.7 6.1 0.00 0.00 0.00 70
20260505051938 62 353 2.6 5.2 0.00 0.00 0.00 69
20260505051435 62 102 2.6 6.1 0.00 0.00 0.00 69
20260505050933 62 281 4.3 7.0 0.00 0.00 0.00 68
20260505050432 62 256 2.6 6.1 0.00 0.00 0.00 69
20260505041359 63 253 2.6 6.1 0.00 0.00 0.00 69
20260505040856 63 283 2.6 5.2 0.00 0.00 0.00 69
20260505040354 64 102 0.0 9.6 0.00 0.00 0.00 69
20260505035850 64 213 2.6 6.1 0.00 0.00 0.00 68
20260505035346 64 140 3.5 5.2 0.00 0.00 0.00 68
20260505034844 64 290 0.9 13.0 0.00 0.00 0.00 67
20260505034340 64 231 2.6 7.0 0.00 0.00 0.00 67
20260505033837 64 172 2.6 5.2 0.00 0.00 0.00 67
20260505033334 64 289 4.3 7.0 0.00 0.00 0.00 66
20260505032832 64 243 4.3 7.8 0.00 0.00 0.00 66
20260505032328 64 304 2.6 8.7 0.00 0.00 0.00 66
20260505031826 64 229 2.6 8.7 0.00 0.00 0.00 65
20260505031322 64 301 4.3 7.0 0.00 0.00 0.00 65
20260505030819 64 316 1.7 6.1 0.00 0.00 0.00 64
20260505030315 64 286 4.3 7.0 0.00 0.00 0.00 64
20260505025811 64 157 2.6 4.3 0.00 0.00 0.00 63
20260505025309 64 199 2.6 4.3 0.00 0.00 0.00 63
20260505024807 65 169 0.9 8.7 0.00 0.00 0.00 62
20260505024304 65 307 1.7 6.1 0.00 0.00 0.00 61
20260505023801 65 283 1.7 4.3 0.00 0.00 0.00 60
20260505023258 65 267 2.6 5.2 0.00 0.00 0.00 60
20260505022755 65 261 2.6 6.1 0.00 0.00 0.00 59
20260505022252 65 182 4.3 6.1 0.00 0.00 0.00 58
20260505021749 64 313 0.9 2.6 0.00 0.00 0.00 58
20260505021246 64 324 0.9 2.6 0.00 0.00 0.00 57
20260505020742 65 351 1.7 1.7 0.00 0.00 0.00 56
20260505020237 65 308 0.9 5.2 0.00 0.00 0.00 56
20260505015735 65 344 0.0 2.6 0.00 0.00 0.00 55
20260505015232 64 252 2.6 4.3 0.00 0.00 0.00 55
20260505014729 64 266 0.0 4.3 0.00 0.00 0.00 54
20260505014226 65 305 1.7 1.7 0.00 0.00 0.00 53
20260505013722 65 234 0.9 1.7 0.00 0.00 0.00 53
20260505013220 65 291 0.9 2.6 0.00 0.00 0.00 52
20260505012718 65 279 1.7 1.7 0.00 0.00 0.00 51
20260505012215 65 192 0.0 2.6 0.00 0.00 0.00 51
20260505011710 65 277 1.7 4.3 0.00 0.00 0.00 50
20260505011208 66 265 2.6 2.6 0.00 0.00 0.00 49
20260505010703 65 249 1.7 4.3 0.00 0.00 0.00 49
20260505010200 65 324 0.0 2.6 0.00 0.00 0.00 49
20260505005656 66 65 0.0 2.6 0.00 0.00 0.00 48
20260505005154 66 342 0.9 2.6 0.00 0.00 0.00 47
20260505004650 66 162 1.7 4.3 0.00 0.00 0.00 47
20260505004147 66 182 0.0 1.7 0.00 0.00 0.00 46
20260505003644 67 5 0.0 7.0 0.00 0.00 0.00 45
20260505003142 67 312 4.3 6.1 0.00 0.00 0.00 44